Regional Weather Roundup
Issued by NWS

Home | Current Version | Previous Version | Graphics & Text | Print | Product List | Glossary Off
Versions: 1 2 3 4 5 6 7 8 9 10 11 12 13 14 15 16 17 18 19 20 21 22 23 24 25 26 27 28 29 30 31 32 33 34 35 36 37 38 39 40 41 42 43 44 45 46 47 48 49 50

000
ASUS43 KDMX 230801
RWRIA

WEATHER ROUNDUP FOR IOWA
NATIONAL WEATHER SERVICE DES MOINES IA
300 AM CDT THU MAR 23 2017

NOTE: "FAIR" INDICATES FEW OR NO CLOUDS BELOW 12,000 FEET WITH NO
SIGNIFICANT WEATHER AND/OR OBSTRUCTIONS TO VISIBILITY.

* - THESE STATIONS ARE NOT NWS STATIONS...THUS NOT UNDER NWS
QUALITY CONTROL.  THEY ALSO DO NOT REPORT WEATHER SUCH
AS PRECIPITATION OR FOG.

IAZ001>003-012>014-020>022-031>034-043>046-230900-
   NORTHWEST IOWA

CITY           SKY/WX    TMP DP  RH WIND       PRES   REMARKS
CARROLL *      CLOUDY    41  21  45 SE15      30.15F
CHEROKEE *     CLOUDY    40  22  49 S9G18     30.12F WCI  34
DENISON *      CLOUDY    41  21  45 SE8G17    30.11F
LE MARS *      CLOUDY    41  25  52 SE14      30.09F
ORANGE CITY *  CLOUDY    39  27  60 SE10G17   30.07F WCI  32
SHELDON *      CLOUDY    39  28  65 SE17G24   30.07F WCI  30
SIOUX CITY     CLOUDY    42  27  55 SE12      30.08F
SPENCER        CLOUDY    39  23  52 SE16      30.11F WCI  30
STORM LAKE *   CLOUDY    39  21  48 SE16G24   30.12F WCI  30
$$

IAZ055>058-069>071-079>083-090>094-230900-
   SOUTHWEST IOWA

CITY           SKY/WX    TMP DP  RH WIND       PRES   REMARKS
ATLANTIC *     CLOUDY    43  18  36 SE10      30.14S
AUDUBON *      CLOUDY    43  18  36 SE9       30.16R
CLARINDA *     CLOUDY    45  19  36 S9G17     30.16F
COUNCIL BLFS * CLOUDY    43  21  42 SE13      30.11F
CRESTON *      CLOUDY    43  16  33 SE18G24   30.15F
HARLAN  *      CLOUDY    43  19  39 SE8       30.17S
LAMONI         CLOUDY    44  16  32 SE14G22   30.16F
RED OAK *      CLOUDY    45  19  36 SE12G17   30.13F
SHENANDOAH *   CLOUDY    46  21  36 SE13      30.13F
$$

IAZ047>049-059>061-072>074-084-230900-
   CENTRAL IOWA

CITY           SKY/WX    TMP DP  RH WIND       PRES   REMARKS
AMES           CLOUDY    39  19  44 SE15      30.21F WCI  31
ANKENY *       CLOUDY    41  16  36 SE12G18   30.21F
BOONE *        CLOUDY    39  19  45 SE15      30.19R WCI  31
CHARITON *     CLOUDY    41  14  33 SE16G23   30.19F
DES MOINES     CLOUDY    42  15  33 SE15      30.20F
GRINNELL*      CLOUDY    37  20  49 SE13      30.25F WCI  29
KNOXVILLE *    CLOUDY    41  14  33 SE15      30.20F
MARSHALLTOWN   CLOUDY    37  21  52 SE16      30.24F WCI  28
NEWTON *       CLOUDY    37  18  44 SE17G24   30.22F WCI  28
PELLA *        CLOUDY    40  18  41 SE13      30.25F WCI  32
PERRY *        CLOUDY    40  15  35 SE14      30.18S WCI  33
$$

IAZ004>006-015-016-023>025-035-036-230900-
   NORTH CENTRAL IOWA

CITY           SKY/WX    TMP DP  RH WIND       PRES   REMARKS
ALGONA *       CLOUDY    37  25  60 SE17G24   30.16F WCI  28
CLARION *      CLOUDY    37  23  56 SE18G24   30.20S WCI  27
ESTHERVILLE    CLOUDY    35  26  69 SE15      30.14F WCI  25
FORT DODGE *   CLOUDY    39  18  41 SE9       30.19F WCI  33
MASON CITY     CLOUDY    35  23  61 SE20G25   30.23F WCI  24
FOREST CITY *  CLOUDY    34  25  69 SE17      30.20F WCI  23
WEBSTER CITY * CLOUDY    39  19  45 SE21G28   30.17F WCI  29
IOWA FALLS *   CLOUDY    38  22  53 SE17      30.24S WCI  28
$$

IAZ007>011-017>019-026>030-037>042-050>054-066-230900-
   NORTHEAST IOWA

CITY           SKY/WX    TMP DP  RH WIND       PRES   REMARKS
CEDAR RAPIDS   CLOUDY    35  22  58 SE10      30.30S WCI  27
CHARLES CITY * CLOUDY    36  23  60 SE18      30.27S WCI  25
CLINTON *      PTCLDY    32  24  72 SE15      30.37F WCI  22
DECORAH *      CLOUDY    34  23  64 S12G18    30.29S WCI  25
DUBUQUE        CLOUDY    32  20  61 SE15      30.34S WCI  22
MONTICELLO *   PTCLDY    32  21  64 SE12      30.33S WCI  23
OELWEIN *      CLOUDY    34  23  64 SE16      30.30F WCI  23
WATERLOO       CLOUDY    37  20  50 SE18G24   30.28F WCI  27
$$

IAZ064-065-067-068-078-230900-
   EAST CENTRAL IOWA

CITY           SKY/WX    TMP DP  RH WIND       PRES   REMARKS
DAVENPORT      CLOUDY    32  21  64 SE16      30.35F WCI  21
IOWA CITY      CLOUDY    37  23  56 SE8       30.34S WCI  31
MUSCATINE *    CLOUDY    37  21  52 SE12      30.33F WCI  30
QUAD CITIES    CLOUDY    34  21  59 SE14      30.35F WCI  25
$$

IAZ062-063-075>077-085>089-095>099-230900-
   SOUTHEAST IOWA

CITY           SKY/WX    TMP DP  RH WIND       PRES   REMARKS
BURLINGTON     CLOUDY    37  22  54 SE15G21   30.30F WCI  28
FAIRFIELD *    CLOUDY    39  19  45 SE13G18   30.27F WCI  32
FORT MADISON * CLOUDY    37  21  52 SE13      30.31S WCI  29
KEOKUK *       CLOUDY    39  21  48 SE10G17   30.29F WCI  32
OSKALOOSA *    CLOUDY    38  21  51 SE9       30.26S WCI  31
CENTERVILLE *  MOCLDY    41  16  36 SE14      30.23F
OTTUMWA        CLOUDY    40  17  39 SE10      30.26S WCI  33
WASHINGTON *   CLOUDY    37  23  56 SE12      30.32S WCI  30
$$

ABBREVIATIONS USED IN REMARKS
   TC - TEMPERATURES IN CELSIUS
  WCI - WIND CHILL INDEX
   HX - HEAT INDEX
  VSB - VISIBILITY
$$





USA.gov is the U.S. government's official web portal to all federal, state and local government web resources and services.